Regional Weather Roundup
Issued by NWS

Home | Current Version | Previous Version | Text Only | Print | Product List | Glossary On
Versions: 1 2 3 4 5 6 7 8 9 10 11 12 13 14 15 16 17 18 19 20 21 22 23 24 25 26 27 28 29 30 31 32 33 34 35 36 37 38 39 40 41 42 43 44 45 46 47 48 49 50
000
ASUS43 KLOT 281403
RWRIL

ILLINOIS REGIONAL WEATHER ROUNDUP
NATIONAL WEATHER SERVICE CHICAGO/ROMEOVILLE IL
900 AM CDT WED JUN 28 2017

NOTE: "FAIR" INDICATES FEW OR NO CLOUDS BELOW 12,000 FEET WITH NO
SIGNIFICANT WEATHER AND/OR OBSTRUCTIONS TO VISIBILITY.

* THESE STATIONS ARE NOT UNDER NWS QUALITY CONTROL. THEY ALSO MAY NOT
  REPORT WEATHER SUCH AS PRECIPITATION OR FOG.

ILZ001-002-007-009-015-016-024-281500-
NORTHWEST ILLINOIS

CITY           SKY/WX    TMP DP  RH WIND       PRES   REMARKS
MOLINE         TSTM      65  62  90 E3        29.94R FOG
STERLING*      TSTM      63  60  90 S7        29.97R FOG
SAVANNA*       RAIN      63  62  96 SE7       29.91F
$$

ILZ003-004-008-010-011-017-018-281500-
NORTH CENTRAL ILLINOIS

CITY           SKY/WX    TMP DP  RH WIND       PRES   REMARKS
ROCKFORD       TSTM      64  56  75 S14G22    29.98R
FREEPORT*      RAIN      61  59  94 SW13      29.97R
ROCHELLE*      CLOUDY    62  56  81 S7        29.98R
DE KALB*       CLOUDY    64  53  68 S13       29.99S
PERU*          CLOUDY    65  54  67 S12G17    29.98S
$$

ILZ005-006-012>014-019>023-281500-
NORTHEAST ILLINOIS

CITY           SKY/WX    TMP DP  RH WIND       PRES   REMARKS
CHICAGO-OHARE  CLOUDY    67  49  52 S15G25    29.99S
CHICAGO-MIDWAY CLOUDY    69  51  52 S15G24    30.01S
AURORA         CLOUDY    65  52  62 S12       30.00S
LANSING*       CLOUDY    67  51  55 S15       30.03F
JOLIET*        CLOUDY    67  54  63 S8        30.01F
WAUKEGAN       CLOUDY    67  52  58 S15       29.97F
DUPAGE AIRPORT CLOUDY    65  53  65 S15       29.99S
WHEELING       CLOUDY    67  52  58 S14       30.00S
MORRIS*        CLOUDY    66  52  60 S10       30.00R
ROMEOVILLE*    CLOUDY    66  49  54 S16       30.01F
$$

LMZ740>746-281500-
SOUTHERN LAKE MICHIGAN

STATION/POSITION SKY/WX   TEMP    WIND        PRES    VSBY  WAVE
                          AIR SEA DIR/SP/G                  HT/PER
                          (F)     (DEG/KT/KT) (MB)    (MI)  (FT/S)
SOUTHERN BUOY              63 61  160/ 17/ 19 1015.5          2/ 4
WILMETTE HARBOR            67 63  190/ 16/ 21   N/A           2/ 4
HARRISON CRIB              67     190/ 20/ 21   N/A
BURNHAM HARBOR             68                   N/A
CALUMET HARBOR             67     170/ 12/ 15 1016.2S
BURNS HARBOR               67     180/ 12/ 19 1017.6R
MICHIGAN CITY              66     160/ 13/ 16   N/A
MICHIGAN CITY 6N           66 66  190/ 16/ 19   N/A           2/ 3
ST. JOSEPH                 67 68  190/ 16/ 19 1017.6R         2/ 3
$$

ILZ025>027-034>036-040-047-049-050-058-095>099-281500-
WEST-CENTRAL ILLINOIS

CITY           SKY/WX    TMP DP  RH WIND       PRES   REMARKS
QUINCY         CLOUDY    72  63  73 S15G28    29.95S
GALESBURG*     CLOUDY    68  60  76 S15G25    29.95R THUNDER
MACOMB*        CLOUDY    70  62  75 S15       29.96F
JACKSONVILLE*  PTSUNNY   70  61  72 S13G20    30.00F
PITTSFIELD*    CLOUDY    72  64  77 S13G20    30.00F
$$

ILZ028>032-037-038-041>044-048-051>054-059>061-281500-
CENTRAL ILLINOIS

CITY           SKY/WX    TMP DP  RH WIND       PRES   REMARKS
PONTIAC        CLOUDY    67  56  66 S14G21    30.03R
BLOOMINGTON    CLOUDY    67  56  67 S15       30.04S
DECATUR        CLOUDY    69  54  58 S15       30.05S
PEORIA         CLOUDY    67  58  72 S13       29.98S
LACON*         CLOUDY    65  56  73 S9        29.97S
LINCOLN*       CLOUDY    69  58  68 S10       30.02S
SPRINGFIELD    CLOUDY    72  60  66 S14G21    30.02S
TAYLORVILLE    PTSUNNY   68  57  68 S12G18    30.05S
$$

ILZ033-039-045-046-055>057-062-063-281500-
EAST-CENTRAL ILLINOIS

CITY           SKY/WX    TMP DP  RH WIND       PRES   REMARKS
CHAMPAIGN      CLOUDY    69  53  56 S16G24    30.06F
RANTOUL*       CLOUDY    69  56  61 S12       30.06S
MATTOON        CLOUDY    68  56  65 S9        30.08S
PARIS*         PTSUNNY   67  56  67 S12G18    30.10F
$$

ILZ079-100>102-281500-
SOUTHWEST ILLINOIS

CITY           SKY/WX    TMP DP  RH WIND       PRES   REMARKS
ALTON          CLOUDY    70  63  78 S16       30.05R
BELLEVILLE     MOSUNNY   73  62  68 SW9       30.07R
CAHOKIA*       MOSUNNY   75  61  61 VRB7      30.05R
SPARTA*        MOSUNNY   72  61  66 S9        30.07S
$$

ILZ064>066-069>071-074>076-080>082-084>086-088>090-092>094-281500-
SOUTH-CENTRAL ILLINOIS

CITY           SKY/WX    TMP DP  RH WIND       PRES   REMARKS
CARBONDALE     CLOUDY    72  61  68 S12       30.08S
CAIRO*         SUNNY     75  62  62 S8        30.09R
EFFINGHAM*     CLOUDY    70  58  65 SE6       30.10S
MARION         PTSUNNY   73  61  64 S12       30.09S
MT. VERNON     MOSUNNY   73  59  61 S6        30.09S
CENTRALIA*     CLOUDY    73  60  62 S13       30.07S
SALEM*         CLOUDY    73  57  57 S8        30.08S
METROPOLIS*    MOSUNNY   75  61  61 S6        30.10S
$$

ILZ067-068-072-073-078-083-087-091-281500-
SOUTHEAST ILLINOIS

CITY           SKY/WX    TMP DP  RH WIND       PRES   REMARKS
LAWRENCEVILLE  MOSUNNY   70  58  65 S12       30.12R
FLORA*         MOSUNNY   73  58  60 S9        30.10S
FAIRFIELD*     CLOUDY    71  58  63 S3        30.10R
HARRISBURG*    MOSUNNY   73  62  68 S5        30.10S
ROBINSON*      MOSUNNY   69  56  63 S8        30.12S
CARMI*         MOSUNNY   71  62  72 S7        30.11R
$$

ABBREVIATIONS USED IN REMARKS
   TC - TEMPERATURE IN CELSIUS
  WCI - WIND CHILL INDEX
   HX - HEAT INDEX
  VSB - VISIBILITY
$$





USA.gov is the U.S. government's official web portal to all federal, state and local government web resources and services.